Weather History for KGCC - March, 2013

Change the Weather History Date:

Tuesday, March 5, 2013

  Actual Average Record
Temperature  
Mean Temperature 20 °F 32 °F  
Max Temperature 36 °F 43 °F - ()
Min Temperature 3 °F 20 °F - ()
Degree Days  
Heating Degree Days 45 33  
Month to date heating degree days 166 168  
Since 1 July heating degree days 5289 5576  
Cooling Degree Days 0 0  
Month to date cooling degree days 0 0  
Year to date cooling degree days 0 0  
Moisture  
Dew Point 11 °F    
Average Humidity 68    
Maximum Humidity 96    
Minimum Humidity 40    
Precipitation  
Precipitation 0.00 in 0.02 in - ()
Month to date precipitation 0.01 0.11  
Year to date precipitation 1.14 0.89  
Sea Level Pressure  
Sea Level Pressure 30.32 in    
Wind  
Wind Speed 9 mph (SSE)    
Max Wind Speed 24 mph    
Max Gust Speed 31 mph    
Visibility 10 miles    
Events      
T = Trace of Precipitation, MM = Missing Value Source: NWS Daily Summary

Daily Weather History Graph

Daily Weather History Graph

Search for Another Location

Airport or City:

Trip Planner

Search our weather history database for the weather conditions in past years. The results will help you decide how hot, cold, wet, or windy it might be!

Date:

Astronomy

Mar. 05, 2013 Rise Set
Actual Time 6:31 AM MST 5:55 PM MST
Civil Twilight 6:02 AM MST 6:24 PM MST
Nautical Twilight 5:29 AM MST 6:58 PM MST
Astronomical Twilight 4:55 AM MST 7:32 PM MST
Moon 1:56 AM MST (3/5) 11:27 AM MST (3/5)
Length of Visible Light 12h 22m
Length of Day
11h 24m
Last Quarter, 40% of the Moon is Illuminated
Mar 5
Last Quarter
Mar 11
New
Mar 19
First Quarter
Mar 27
Full
Apr 2
Last Quarter

Hourly Weather History & Observations

Time (MST) Temp. Windchill Dew Point Humidity Pressure Visibility Wind Dir Wind Speed Gust Speed Precip Events Conditions
12:53 AM 7.0 °F -4.5 °F 5.0 °F 92% 30.46 in 10.0 mi West 6.9 mph - N/A   Clear
1:53 AM 8.1 °F -2.0 °F 5.0 °F 87% 30.47 in 10.0 mi West 5.8 mph - N/A   Clear
2:53 AM 6.1 °F -0.9 °F 3.9 °F 91% 30.45 in 10.0 mi WSW 3.5 mph - N/A   Clear
3:53 AM 5.0 °F -8.1 °F 3.0 °F 92% 30.45 in 10.0 mi West 8.1 mph - N/A   Clear
4:53 AM 5.0 °F -4.1 °F 3.0 °F 92% 30.45 in 10.0 mi WSW 4.6 mph - N/A   Clear
5:53 AM 3.9 °F -5.3 °F 1.9 °F 91% 30.45 in 10.0 mi WSW 4.6 mph - N/A   Clear
6:53 AM 3.9 °F -5.3 °F 1.9 °F 91% 30.45 in 10.0 mi South 4.6 mph - N/A   Clear
7:53 AM 12.9 °F 6.9 °F 10.0 °F 88% 30.44 in 10.0 mi SSE 3.5 mph - N/A   Clear
8:53 AM 18.0 °F 12.7 °F 10.0 °F 71% 30.43 in 10.0 mi SSE 3.5 mph - N/A   Clear
9:53 AM 21.9 °F - 12.0 °F 66% 30.40 in 10.0 mi Calm Calm - N/A   Clear
10:53 AM 26.1 °F 19.4 °F 15.1 °F 63% 30.36 in 10.0 mi SSE 5.8 mph - N/A   Clear
11:53 AM 28.9 °F 21.1 °F 14.0 °F 54% 30.35 in 10.0 mi South 8.1 mph - N/A   Clear
12:53 PM 32.0 °F 23.0 °F 16.0 °F 52% 30.32 in 10.0 mi SE 11.5 mph - N/A   Clear
1:53 PM 34.0 °F 26.6 °F 15.1 °F 46% 30.28 in 10.0 mi SE 9.2 mph 18.4 mph N/A   Clear
2:53 PM 36.0 °F 29.0 °F 14.0 °F 41% 30.27 in 10.0 mi ESE 9.2 mph - N/A   Clear
3:53 PM 35.1 °F 27.9 °F 19.9 °F 54% 30.25 in 10.0 mi East 9.2 mph - N/A   Clear
4:53 PM 34.0 °F 26.6 °F 16.0 °F 48% 30.22 in 10.0 mi ESE 9.2 mph - N/A   Clear
5:53 PM 32.0 °F 23.6 °F 16.0 °F 52% 30.23 in 10.0 mi ESE 10.4 mph - N/A   Clear
6:53 PM 30.0 °F 20.5 °F 15.1 °F 54% 30.23 in 10.0 mi SE 11.5 mph - N/A   Clear
7:53 PM 28.0 °F 19.3 °F 15.1 °F 58% 30.19 in 10.0 mi SSE 9.2 mph - N/A   Clear
8:53 PM 28.0 °F 17.5 °F 15.1 °F 58% 30.19 in 10.0 mi SSE 12.7 mph - N/A   Clear
9:53 PM 27.0 °F 14.3 °F 12.0 °F 53% 30.17 in 10.0 mi SSE 17.3 mph - N/A   Clear
10:53 PM 25.0 °F 11.3 °F 12.0 °F 58% 30.14 in 10.0 mi SSE 18.4 mph - N/A   Clear
11:53 PM 24.1 °F 9.4 °F 12.0 °F 60% 30.12 in 10.0 mi South 20.7 mph 31.1 mph N/A   Clear